Macon, GA

5:47 PM EDT on April 30, 2017 (GMT -0400)
Middle Georgia Regional

Weather History for KMCN - January, 2014

Change the Weather History Date:

Friday, January 3, 2014

  Actual Average Record
Temperature  
Mean Temperature 32 °F 46 °F  
Max Temperature 41 °F 57 °F 76 °F (2000)
Min Temperature 23 °F 35 °F 14 °F (2001)
Degree Days  
Heating Degree Days 33 19  
Month to date heating degree days 77 57  
Since 1 July heating degree days 983 982  
Cooling Degree Days 0 0  
Month to date cooling degree days 0 0  
Year to date cooling degree days 0 0  
Moisture  
Dew Point 14 °F    
Average Humidity 58    
Maximum Humidity 88    
Minimum Humidity 28    
Precipitation  
Precipitation 0.00 in 0.13 in 1.18 in (1906)
Month to date precipitation 0.35 0.38  
Year to date precipitation 0.35 0.38  
Snow  
Snow 0.00 in 0.00 in 3.00 in (2002)
Month to date snowfall 0.0 0.0  
Since 1 July snowfall 0.0 0.1  
Snow Depth 0.00 in    
Sea Level Pressure  
Sea Level Pressure 30.33 in    
Wind  
Wind Speed 9 mph (North)    
Max Wind Speed 24 mph    
Max Gust Speed 32 mph    
Visibility 10 miles    
Events      
T = Trace of Precipitation, MM = Missing Value Source: NWS Daily Summary

Daily Weather History Graph

Daily Weather History Graph

Search for Another Location

Airport or City:

Trip Planner

Search our weather history database for the weather conditions in past years. The results will help you decide how hot, cold, wet, or windy it might be!

Date:

Astronomy

Jan. 03, 2014 Rise Set
Actual Time 7:37 AM EST 5:41 PM EST
Civil Twilight 7:10 AM EST 6:08 PM EST
Nautical Twilight 6:39 AM EST 6:39 PM EST
Astronomical Twilight 6:09 AM EST 7:08 PM EST
Moon 9:11 AM EST (1/3) 8:38 PM EST (1/3)
Length of Visible Light 10h 58m
Length of Day
10h 04m
Waxing Crescent, 8% of the Moon is Illuminated
Jan 3
Waxing Crescent
Jan 7
First Quarter
Jan 15
Full
Jan 24
Last Quarter
Jan 30
New

Hourly Weather History & Observations

Time (EST) Temp. Windchill Dew Point Humidity Pressure Visibility Wind Dir Wind Speed Gust Speed Precip Events Conditions
12:53 AM 30.0 °F 18.3 °F 19.0 °F 64% 30.12 in 10.0 mi NNW 17.3 mph 26.5 mph N/A   Partly Cloudy
1:53 AM 28.0 °F 15.3 °F 15.1 °F 58% 30.17 in 10.0 mi NNW 18.4 mph 26.5 mph N/A   Clear
2:53 AM 27.0 °F 14.7 °F 12.9 °F 56% 30.21 in 10.0 mi NW 16.1 mph 21.9 mph N/A   Clear
3:53 AM 26.1 °F 14.0 °F 12.9 °F 58% 30.22 in 10.0 mi NW 15.0 mph 24.2 mph N/A   Clear
4:53 AM 25.0 °F 10.9 °F 12.0 °F 58% 30.24 in 10.0 mi NNW 19.6 mph 32.2 mph N/A   Clear
5:53 AM 24.1 °F 13.1 °F 12.0 °F 60% 30.26 in 10.0 mi NNW 11.5 mph - N/A   Clear
6:53 AM 24.1 °F 13.1 °F 12.9 °F 62% 30.29 in 10.0 mi NW 11.5 mph - N/A   Clear
7:53 AM 23.0 °F 13.9 °F 12.9 °F 65% 30.32 in 10.0 mi NW 8.1 mph - N/A   Clear
8:53 AM 26.1 °F 16.8 °F 14.0 °F 60% 30.37 in 10.0 mi NW 9.2 mph - N/A   Clear
9:53 AM 28.0 °F 17.5 °F 12.9 °F 53% 30.39 in 10.0 mi North 12.7 mph 19.6 mph N/A   Clear
10:53 AM 32.0 °F 23.0 °F 12.9 °F 45% 30.40 in 10.0 mi NNW 11.5 mph - N/A   Clear
11:53 AM 34.0 °F 26.0 °F 12.0 °F 40% 30.38 in 10.0 mi NNW 10.4 mph - N/A   Clear
12:53 PM 36.0 °F 32.1 °F 12.0 °F 37% 30.37 in 10.0 mi Variable 4.6 mph 17.3 mph N/A   Clear
1:53 PM 37.9 °F 33.5 °F 10.9 °F 33% 30.36 in 10.0 mi North 5.8 mph - N/A   Clear
2:53 PM 39.0 °F 35.7 °F 10.9 °F 32% 30.34 in 10.0 mi Variable 4.6 mph - N/A   Clear
3:53 PM 41.0 °F 34.7 °F 10.9 °F 29% 30.34 in 10.0 mi NNE 10.4 mph - N/A   Clear
4:53 PM 39.9 °F 33.9 °F 10.0 °F 29% 30.35 in 10.0 mi NNE 9.2 mph - N/A   Clear
5:53 PM 33.1 °F 27.7 °F 12.9 °F 43% 30.37 in 10.0 mi NE 5.8 mph - N/A   Clear
6:53 PM 32.0 °F 26.4 °F 12.9 °F 45% 30.38 in 10.0 mi NE 5.8 mph - N/A   Clear
7:53 PM 28.9 °F 22.8 °F 16.0 °F 58% 30.39 in 10.0 mi NE 5.8 mph - N/A   Clear
8:53 PM 27.0 °F 21.6 °F 17.1 °F 66% 30.40 in 10.0 mi NE 4.6 mph - N/A   Clear
9:53 PM 26.1 °F - 19.9 °F 78% 30.41 in 10.0 mi Calm Calm - N/A   Clear
10:53 PM 25.0 °F - 21.9 °F 88% 30.40 in 10.0 mi Calm Calm - N/A   Clear
11:53 PM 24.1 °F - 19.9 °F 84% 30.40 in 10.0 mi Calm Calm - N/A   Clear